RH
66 66 69 68 65 65 61 61 65 70 70 65 60 55 55 59 64 72 92 57 50 62 67 47 58 61 48 46 42 44 38 37 38 33 26 22 23 21 20 17 17 18 24 40 45
62 60 62 66 65 66 60 59 60 64 68 67 64 58 56 56 57 76 67 66 61 60 65 50 72 66 58 48 42 35 37 30 27 29 26 25 20 23 23 22 20 24 29 57 67
59 62 66 66 66 60 60 60 62 62 63 65 66 61 58 51 69 55 51 66 66 59 48 48 58 67 65 52 43 36 34 32 40 34 29 27 28 28 23 26 19 22 31 54 70
63 62 64 64 61 58 61 60 61 60 61 62 63 63 62 54 74 48 57 66 67 53 50 55 65 78 70 62 43 48 33 34 44 41 41 35 28 29 27 21 23 28 29 33 58
63 64 66 65 61 61 62 63 60 58 61 63 63 64 65 68 56 58 70 59 58 57 60 59 64 66 69 58 51 48 44 39 38 43 41 39 37 29 31 28 28 28 31 28 27
66 66 68 67 66 64 61 59 59 63 66 62 62 65 69 83 32 34 79 53 52 64 60 62 55 52 57 55 52 44 42 41 37 40 41 42 38 38 30 27 26 27 25 23 25
67 67 68 66 70 67 66 64 59 61 65 64 65 60 72 60 47 55 83 57 51 59 61 58 46 53 50 61 47 47 51 42 43 38 35 37 41 43 28 24 25 23 21 23 25
69 67 65 66 65 61 59 60 64 65 67 68 69 61 69 39 39 50 72 56 47 51 53 58 56 49 42 44 49 49 45 52 35 39 41 38 29 32 30 27 28 25 22 24 23
62 65 63 62 60 62 62 65 68 66 66 63 71 66 68 44 71 60 62 59 50 54 57 59 73 54 52 50 61 50 43 42 49 40 33 38 30 26 30 31 28 26 24 26 25
71 72 72 72 70 65 67 67 66 66 59 54 60 88 59 56 68 64 53 60 68 68 75 78 85 83 60 48 52 52 49 45 40 44 46 45 34 33 33 33 30 26 24 24 25
72 74 75 76 87 73 73 62 58 71 68 61 59 70 55 56 62 75 57 69 78 67 75 73 94 87 61 45 38 39 45 42 42 42 42 43 43 38 33 31 30 26 23 22 24
73 76 74 76 77 81 80 64 61 63 65 60 59 69 53 67 70 86 64 94 78 78 60 82 93 65 49 48 48 44 42 43 54 45 42 43 44 35 32 32 31 29 26 25 24
72 75 77 81 81 84 70 66 64 59 65 74 79 73 72 78 69 85 79 79 64 68 72 72 68 51 55 57 54 49 44 53 49 47 42 44 40 38 30 29 29 28 30 31 32
73 76 73 70 68 75 68 70 66 62 98 88 94 83 78 74 79 63 88 89 86 73 83 86 78 64 61 57 48 63 53 51 52 52 50 45 31 38 32 38 36 36 38 38 38
73 78 76 74 76 73 81 73 67 70 95 97 92 77 73 78 80 88 87 69 77 92 91 97 92 82 78 60 53 71 55 52 51 50 49 46 45 34 30 37 37 35 37 40 42
75 75 75 78 70 81 72 68 70 96 95 98 91 89 88 89 78 84 78 77 68 78 82 95 90 86 85 91 72 48 49 49 49 53 68 43 47 30 30 29 34 33 34 38 42
80 70 66 69 72 74 72 75 96 91 98 100 97 86 80 83 72 77 75 82 90 98 100 100 96 85 79 87 86 69 59 84 80 83 61 52 48 28 30 28 30 39 40 38 42
80 73 70 66 70 73 72 85 92 94 100 94 82 86 96 73 87 90 73 69 57 62 93 91 96 88 75 60 66 58 59 74 55 42 40 56 49 30 30 28 31 34 38 42 46
77 64 71 61 72 70 80 99 99 100 99 80 65 70 74 70 81 92 67 66 60 50 69 78 88 54 54 51 49 62 76 48 68 61 56 35 38 32 33 32 33 33 37 45 51
80 70 68 68 72 71 91 95 99 92 69 59 76 66 64 69 67 65 67 56 58 51 45 59 91 61 55 49 50 53 46 68 86 72 50 33 29 26 37 36 33 36 41 46 54
76 74 62 70 71 80 100 99 80 64 63 60 67 65 64 63 62 61 62 57 50 52 43 49 60 79 56 63 60 60 66 59 48 47 47 23 21 24 34 32 36 36 41 54 55
81 84 66 70 90 93 99 93 79 68 60 54 55 59 59 58 57 56 53 53 46 44 50 53 62 80 66 56 51 52 53 46 59 63 62 62 27 24 26 31 35 36 48 56 52
83 81 67 76 95 92 74 71 75 64 58 52 54 53 53 55 62 56 56 57 47 47 47 48 72 86 74 66 58 66 57 53 53 64 90 56 29 31 31 33 31 40 52 54 52
81 86 81 76 76 76 71 72 66 64 56 51 52 48 51 56 53 59 60 60 54 51 62 50 57 57 55 67 67 88 68 57 84 92 56 53 34 32 34 32 36 43 56 54 50
84 84 80 88 73 71 72 69 69 68 60 53 51 50 50 56 57 60 62 59 58 61 52 48 71 69 62 60 64 68 71 67 87 71 93 47 48 30 30 36 37 50 62 60 52
87 86 73 73 67 67 73 70 72 73 74 60 56 62 53 51 50 57 57 53 52 56 52 57 93 88 84 65 67 84 64 66 67 61 63 53 54 34 32 34 46 64 67 62 55
86 80 90 75 69 66 68 71 67 68 73 64 60 58 61 65 63 54 48 46 47 53 58 58 82 86 71 68 68 82 72 65 62 58 55 73 47 37 39 43 60 72 67 58 52
Wind_Speed
20 21 19 18 17 16 15 14 15 14 12 13 13 12 12 13 14 10 13 11 15 15 4 10 14 10 7 8 5 3 10 16 21 20 15 9 12 7 2 8 4 2 3 4 2
20 21 20 18 15 16 14 14 14 13 13 13 13 13 13 13 13 14 13 12 18 18 9 15 18 14 8 8 7 12 14 19 8 8 10 12 11 11 8 10 8 7 2 4 6
21 21 19 17 15 16 15 14 14 12 12 13 13 12 10 9 8 10 15 24 22 19 16 12 16 13 11 9 11 13 15 6 7 7 7 11 9 5 8 9 6 6 2 3 6
21 19 17 15 14 15 15 13 12 12 12 11 11 12 8 6 8 6 3 20 23 19 15 16 19 15 12 14 13 9 12 7 6 6 5 9 7 6 8 1 5 7 4 2 5
20 21 18 15 13 14 13 13 13 12 11 10 9 9 7 12 14 7 9 5 21 20 20 19 23 18 15 16 12 13 4 8 6 6 5 5 6 7 8 6 3 4 3 3 2
21 21 18 16 15 14 14 14 12 12 14 10 9 5 8 15 9 14 7 10 17 23 21 19 18 16 15 12 13 12 6 8 10 7 4 7 7 4 3 4 10 9 11 8 8
21 19 18 17 15 13 14 15 14 14 13 12 10 5 9 16 4 4 3 9 9 24 23 19 12 17 12 7 9 4 12 13 8 8 10 6 13 13 14 13 11 11 10 9 10
20 19 18 15 15 14 15 14 15 15 15 13 10 5 8 12 15 9 7 9 10 17 18 17 10 16 9 7 11 13 6 10 11 16 6 7 13 3 4 10 13 13 13 12 15
22 21 19 17 16 13 13 13 14 14 15 12 3 3 6 3 6 10 10 10 15 20 16 14 4 13 8 14 10 14 10 17 6 10 13 17 8 6 6 5 8 8 8 9 11
24 21 18 17 17 13 12 13 12 3 4 8 6 4 8 12 6 6 4 6 14 21 15 17 7 8 14 16 16 17 16 14 14 7 10 10 15 6 8 7 11 11 11 10 11
26 21 20 18 14 12 3 3 3 4 3 3 2 4 2 5 7 4 1 6 12 20 14 19 5 14 20 18 1 8 16 9 7 6 7 12 11 12 12 13 14 15 14 12 10
26 23 19 17 6 7 3 0 1 4 2 2 5 2 12 8 5 6 5 8 25 22 14 11 14 14 14 14 7 12 13 10 5 5 6 4 8 13 14 13 9 10 10 8 5
26 24 18 16 16 5 3 2 3 2 1 6 5 4 7 8 4 7 4 11 20 20 15 15 5 14 16 14 12 9 12 10 4 6 1 4 7 6 3 4 5 6 5 5 5
24 19 18 3 5 2 4 6 3 2 1 2 2 3 4 3 5 3 3 1 5 9 6 3 6 18 18 18 14 11 3 8 8 7 3 3 3 4 7 9 9 10 8 7 7
18 18 11 15 2 4 7 4 1 3 3 4 2 2 1 5 6 4 3 4 10 13 5 4 7 14 17 18 13 5 7 6 4 3 2 4 5 8 9 10 9 8 7 7 7
14 14 9 5 5 4 4 3 3 4 10 5 6 3 4 4 4 6 5 9 4 9 14 6 4 5 4 8 6 11 10 8 4 1 4 4 5 9 9 11 9 5 6 5 6
15 7 5 1 1 4 4 4 2 8 2 6 5 2 7 5 9 6 5 6 4 5 5 2 4 2 8 8 5 2 9 4 4 4 2 1 5 4 9 6 9 5 5 5 5
17 9 1 1 2 4 3 3 11 4 4 4 5 10 5 4 7 6 4 6 7 9 5 3 5 2 2 1 6 7 4 2 4 5 4 3 6 4 7 8 9 2 3 3 5
9 2 2 1 3 2 2 8 4 1 2 4 7 5 5 9 5 2 5 3 3 5 4 5 5 4 2 2 2 4 4 3 5 2 2 4 4 4 4 9 7 2 3 4 5
3 2 2 5 1 2 1 7 3 2 2 2 3 3 4 4 3 2 3 2 3 2 1 3 6 2 5 3 9 2 9 4 0 4 5 5 4 5 12 14 7 2 4 3 4
2 1 1 6 3 5 5 5 3 3 3 3 2 4 3 4 4 3 2 2 2 3 3 6 3 3 3 2 6 5 3 2 1 3 2 2 4 8 15 13 5 4 3 2 4
3 2 3 3 5 3 3 4 5 6 4 3 4 5 3 2 3 2 2 0 2 2 3 2 5 5 2 2 3 1 2 3 3 4 2 4 4 5 9 9 2 5 1 2 4
4 3 1 3 4 3 0 1 1 5 4 4 2 1 1 3 3 1 2 3 2 1 3 5 3 6 5 3 2 5 4 2 5 2 5 2 5 4 5 6 4 5 1 4 4
3 2 3 3 2 1 2 4 3 2 2 2 2 2 3 2 3 4 3 3 1 2 6 3 3 2 0 4 3 5 8 9 4 3 5 6 2 7 7 4 7 3 1 2 3
4 3 3 2 3 4 1 1 0 2 3 4 3 1 2 3 3 3 2 4 3 2 2 2 3 0 1 1 2 3 6 12 8 5 6 2 5 4 6 7 6 1 0 2 2
3 3 2 4 4 1 2 1 1 1 2 1 2 2 1 2 1 5 5 3 2 2 2 2 3 1 1 0 5 6 9 9 13 13 12 13 18 15 6 3 2 2 2 2 1
3 1 2 3 3 2 1 1 2 1 1 1 5 3 4 2 1 2 1 3 3 5 4 4 5 2 2 2 3 8 16 17 10 9 11 11 9 5 4 5 3 4 3 1 2
Wind_Direction
324 325 314 310 309 307 303 304 303 296 288 291 288 290 298 297 306 294 280 215 219 238 271 189 208 182 170 191 204 197 224 220 215 223 213 178 196 184 179 232 207 174 318 7 50
320 320 316 311 306 304 304 307 303 297 292 281 282 286 303 306 289 274 244 234 218 230 216 183 188 174 174 191 190 205 219 221 226 207 204 185 202 172 183 190 201 191 116 64 126
324 324 319 319 315 308 314 308 305 303 291 285 283 284 296 298 294 257 225 213 209 216 219 203 186 179 182 181 189 205 224 185 189 179 173 175 175 178 189 194 195 182 76 87 155
322 318 319 318 316 314 316 304 302 299 293 294 289 286 290 251 225 149 252 197 195 199 197 193 186 186 184 192 189 206 225 220 153 151 144 172 162 185 221 175 139 109 55 60 173
319 316 321 307 310 309 307 302 293 294 291 279 269 278 277 227 234 126 350 202 196 190 198 195 189 195 187 198 190 223 184 192 170 152 134 136 186 232 222 203 215 258 237 228 237
321 324 324 313 310 300 301 300 293 298 290 271 272 266 226 243 250 251 186 293 203 195 192 197 196 189 194 193 199 202 204 192 206 200 162 196 213 222 183 210 237 245 254 251 254
326 323 318 312 313 298 299 300 298 300 291 279 283 245 241 234 202 61 170 258 208 188 186 202 199 184 158 153 204 183 207 228 202 201 226 201 234 232 248 246 248 233 243 244 254
328 321 316 312 306 311 300 295 299 294 290 279 274 237 249 250 243 258 215 228 209 184 188 196 207 193 199 128 167 193 205 190 208 208 200 201 246 183 207 229 240 249 254 259 260
334 330 323 318 308 304 309 306 301 302 294 276 202 198 249 186 211 223 183 201 179 180 192 192 191 180 160 170 160 194 207 211 165 204 204 213 251 229 174 217 241 237 237 246 264
327 321 309 298 296 297 302 306 309 283 99 107 90 155 246 207 154 169 164 188 151 167 179 193 195 176 183 184 195 189 205 207 207 160 204 212 234 206 211 241 265 265 259 248 255
343 333 319 304 275 276 351 317 190 157 212 310 128 258 228 153 164 90 331 126 178 166 177 189 194 188 184 195 27 179 196 189 209 137 209 229 241 247 255 261 258 263 268 269 273
359 351 354 346 335 116 115 264 353 13 169 306 300 336 275 294 140 53 314 215 162 162 159 168 210 207 182 179 164 183 189 183 105 163 233 205 250 250 252 266 287 284 281 291 292
2 3 22 64 78 74 80 35 340 10 287 58 41 306 302 313 99 192 231 145 162 161 175 181 208 193 186 179 183 191 199 171 149 148 109 275 243 201 126 95 110 94 96 72 48
6 11 19 153 48 8 54 342 39 329 158 29 81 281 243 197 83 342 8 338 54 171 100 149 300 188 185 188 183 179 170 151 138 186 206 277 171 116 130 114 110 103 83 60 46
11 12 33 37 73 41 328 337 170 220 134 26 124 277 84 23 118 93 227 343 114 143 153 183 228 172 185 186 193 110 156 122 116 136 253 185 245 109 154 138 126 94 72 57 37
353 24 14 40 60 0 328 332 255 244 42 26 14 57 110 198 178 101 82 46 60 79 76 33 360 27 100 76 73 134 110 84 92 105 230 152 259 161 177 164 142 106 62 58 35
341 349 51 91 47 312 302 284 294 40 243 8 74 286 97 81 70 48 78 101 140 127 77 28 46 34 109 79 89 75 169 139 175 189 257 136 218 58 142 165 146 88 54 36 22
329 296 26 57 256 279 315 262 50 329 24 231 99 68 49 83 48 18 82 83 41 101 104 89 113 60 235 133 172 178 245 278 193 179 129 158 226 122 139 140 149 80 12 14 36
332 260 270 322 320 237 297 55 26 6 260 113 89 73 85 74 102 83 40 73 43 6 89 122 83 99 126 118 165 169 217 17 94 61 233 173 210 215 177 194 204 303 345 34 22
315 284 279 329 266 203 30 88 85 227 290 248 81 302 138 105 125 127 18 34 90 51 277 122 112 38 156 161 57 265 131 170 198 185 224 175 238 135 150 157 178 1 6 32 4
302 281 71 336 216 45 47 52 9 17 350 0 113 115 112 142 130 98 112 141 197 94 124 137 94 149 196 211 175 152 189 80 91 315 282 191 127 132 150 148 119 15 10 358 355
324 43 32 308 56 49 26 335 326 344 4 51 87 83 152 162 121 152 162 124 138 147 94 74 103 151 140 36 309 300 210 212 262 162 30 333 100 163 161 168 86 358 4 359 24
353 310 11 296 89 72 28 28 259 9 15 18 77 19 115 156 159 129 81 5 188 74 154 163 108 127 161 193 185 220 193 150 101 60 197 243 114 145 182 214 276 328 34 26 11
320 326 339 48 23 60 52 31 9 52 31 6 89 131 132 108 29 141 131 37 356 48 69 97 109 304 332 82 112 191 193 194 164 182 168 231 355 175 183 265 324 338 312 6 17
6 42 341 342 51 359 340 139 36 13 6 17 122 97 161 145 127 133 136 135 77 78 55 39 104 57 39 65 191 218 197 194 205 193 212 57 230 248 301 312 323 18 191 344 350
16 346 331 294 308 317 314 123 192 156 279 74 167 78 236 165 5 183 162 204 150 139 114 26 107 80 21 49 250 266 243 221 223 235 253 262 279 280 293 304 297 248 209 251 311
354 316 334 325 304 221 147 359 285 231 142 91 133 119 85 30 286 345 333 104 144 161 131 129 137 169 228 354 281 262 231 211 206 208 220 220 233 225 288 309 307 215 208 223 194